Powrót do katalogu

NIMBUS 2 DEB

AktywnyLEO
NORAD 25614·DEBRIS·🇺🇸 United States

Wystrzelony May 15, 1966 z Vandenberg Space Force Base

Loading…

Następne Przeloty (najbliższe 24 godziny)

TLE

ŚwieżeSource: Space-Track

Epoka: Sep 14, 2026, 12:06 UTC

1 25614U 66040G   26257.50466333  .00001833  00000-0  23699-2 0  9992
2 25614 100.5117  95.5593 0053072 225.4744 162.7871 13.63343653482021

Śledź NIMBUS 2 DEB w czasie rzeczywistym z AllMySat

Download on the App Store